Theta_e
356 356 358 357 358 358 356 356 358 358 359 356 357 356 356 356 360 360 361 362 359 357 359 357 361 360 358 357 358 360 360 360 361 359 359 359 360 358 359 359 359 359 359 359 359 359 358 358 357 357 357 358 357 357 356 356 356 356 356 356 357 357 357 356 357 357 357 357 358 358 358 358 358 358 357 357 357 356 356 356 356 355 354 354 353
357 359 357 358 358 358 358 356 356 359 356 357 357 358 358 360 360 362 360 361 362 362 362 355 354 356 359 357 357 356 360 360 361 360 362 361 361 359 358 359 360 360 359 359 358 358 358 358 357 357 357 356 357 356 357 356 356 357 357 356 356 357 357 356 356 356 357 357 357 358 359 359 358 358 357 357 357 356 356 356 356 354 354 353 353
358 360 359 358 359 359 357 358 355 358 360 357 360 360 360 360 361 361 363 365 364 363 363 358 357 355 357 356 356 359 358 361 359 359 357 362 360 360 359 359 359 360 359 359 358 358 358 358 358 358 357 357 358 357 357 356 357 357 357 357 357 357 357 358 358 358 358 357 357 358 359 359 358 357 357 357 357 357 357 356 355 355 355 355 353
362 361 360 359 359 358 358 359 357 359 361 358 359 362 363 363 367 369 368 368 366 364 365 355 353 351 356 355 357 357 357 359 356 355 358 361 362 362 360 358 358 358 361 362 359 359 359 358 358 357 358 358 358 358 358 358 359 358 358 358 358 358 358 358 358 358 358 358 359 358 358 358 357 357 357 358 358 357 357 356 356 356 355 354 354
362 362 362 359 359 358 357 360 360 361 361 362 365 367 366 368 366 369 368 366 361 360 363 356 354 356 354 353 354 355 358 359 359 357 356 359 362 361 359 360 360 358 360 360 361 361 360 359 359 359 359 359 359 359 359 359 359 359 358 358 358 358 358 359 359 359 359 358 358 358 358 357 358 357 357 358 357 357 357 356 356 356 355 355 355
363 363 361 358 359 360 358 359 361 365 365 368 365 364 364 364 363 363 362 361 357 360 356 355 353 356 355 354 355 357 358 355 356 356 357 358 360 363 361 360 360 361 361 360 360 361 361 361 361 361 361 361 360 360 360 360 360 360 359 359 359 359 359 359 359 359 359 359 359 359 359 359 359 359 359 358 358 358 357 357 356 355 356 356 356
366 364 361 361 357 357 358 358 363 366 363 366 365 364 364 364 364 361 361 360 358 361 359 357 354 355 357 357 354 355 357 355 357 357 357 361 362 360 363 362 360 361 361 360 362 360 360 362 361 361 362 362 362 362 362 361 361 361 361 361 361 362 362 362 361 361 361 361 361 360 360 360 360 360 360 359 359 359 358 358 358 358 359 358 358
367 367 362 361 357 357 357 362 365 365 365 366 367 363 364 363 365 363 360 357 360 357 359 358 356 353 355 357 356 357 358 357 357 356 356 360 361 361 363 364 364 362 361 360 363 366 360 360 361 361 362 362 363 363 364 363 363 362 362 363 363 364 364 363 363 363 363 363 363 363 362 362 362 361 361 361 361 361 360 360 360 360 360 359 359
367 367 365 361 357 358 357 361 365 364 364 365 364 364 363 358 365 367 365 361 357 354 356 358 355 354 355 354 354 358 357 359 358 357 356 359 360 359 360 363 364 362 365 365 366 365 364 359 360 360 361 362 363 364 364 365 365 364 364 364 365 365 365 365 364 364 364 364 364 364 364 364 363 363 363 363 362 362 361 361 361 361 360 360 360
367 366 366 360 359 358 360 364 365 365 364 363 363 363 364 362 362 366 365 364 359 356 354 355 353 352 354 352 358 356 358 359 360 360 360 361 361 361 360 360 360 360 360 362 360 365 366 364 360 359 360 360 360 360 361 362 363 365 366 366 366 366 366 366 366 365 365 364 365 365 365 365 365 365 364 364 363 362 362 362 362 362 361 362 362
367 367 366 362 360 361 362 366 366 365 365 362 361 363 363 363 362 364 368 366 363 361 360 359 351 350 350 353 356 361 362 359 361 361 360 358 358 359 358 362 361 361 364 364 361 364 366 367 367 368 368 360 359 359 360 361 363 363 364 365 366 367 367 367 367 366 367 366 367 367 367 367 366 366 365 365 364 363 363 363 362 362 362 362 362
369 368 367 364 361 362 364 366 365 364 363 360 360 362 362 362 363 362 362 363 364 365 361 356 352 353 353 355 356 357 361 360 361 360 361 361 360 361 358 359 363 363 361 363 363 361 365 368 369 367 368 366 360 359 360 361 361 362 362 363 363 364 367 369 369 369 369 369 369 367 366 365 366 366 366 365 364 364 364 363 363 362 362 362 362
370 368 366 366 365 365 368 367 365 365 364 361 362 363 365 365 365 367 361 360 358 360 359 358 356 350 357 351 354 357 356 360 358 356 357 357 359 360 360 361 361 363 366 364 364 363 364 370 369 370 369 371 370 364 361 360 360 361 361 361 361 363 364 365 367 369 371 371 370 367 365 364 365 366 365 365 364 365 364 363 363 362 362 361 361
370 370 369 367 366 364 367 366 365 365 365 365 365 364 365 364 364 360 364 359 357 358 357 359 350 346 345 346 347 352 357 355 352 351 354 356 357 360 361 357 355 358 363 366 367 365 364 367 371 368 371 371 371 371 373 371 370 362 360 360 362 364 366 367 368 369 369 369 370 367 366 365 365 366 366 365 364 364 363 363 363 362 361 360 361
370 370 369 368 366 366 366 367 366 365 364 363 362 363 365 363 363 360 359 361 359 362 364 361 348 351 353 352 342 344 353 354 353 351 350 352 354 354 355 354 354 359 364 364 364 367 362 364 367 369 370 371 370 370 372 370 369 363 362 361 362 363 365 366 366 367 368 370 370 369 368 367 367 366 365 364 364 364 363 362 362 361 360 360 360
367 366 366 367 367 365 365 364 367 367 365 363 362 361 364 363 361 362 362 355 354 356 361 365 359 353 344 345 344 344 338 344 348 350 350 350 351 350 352 352 354 359 362 360 356 363 366 367 365 369 370 370 370 369 370 370 368 364 365 364 364 362 362 363 365 367 367 368 369 369 369 368 367 366 365 365 364 364 363 362 362 361 361 360 361
366 366 365 368 369 368 366 365 365 366 365 363 362 360 362 363 364 362 362 357 354 355 358 359 361 364 354 348 344 341 341 343 344 348 348 346 347 349 352 352 350 357 357 358 361 363 359 358 366 368 370 371 371 370 370 371 372 373 374 370 366 363 363 364 365 366 368 369 370 369 369 368 367 365 365 365 364 363 363 362 362 362 361 361 361
367 368 366 367 368 368 368 365 364 365 365 363 364 363 363 361 364 363 360 363 361 357 352 361 360 366 364 357 354 345 345 348 344 339 359 348 349 347 349 349 349 351 359 357 356 356 361 359 363 366 367 367 368 367 368 369 372 372 374 373 365 363 361 359 361 364 366 369 371 371 371 368 367 366 366 365 363 363 362 362 362 362 362 361 361
365 367 367 368 369 369 368 367 364 364 366 365 362 360 359 361 365 364 363 365 364 357 356 353 360 359 358 357 358 358 353 348 343 346 341 350 350 347 347 349 348 349 349 350 351 352 358 359 356 355 359 365 365 365 369 367 366 368 364 364 361 361 360 358 359 363 366 368 371 371 371 370 367 366 364 363 363 363 363 363 362 362 361 362 361
365 368 368 369 369 369 370 367 365 365 364 363 362 361 363 365 368 368 369 367 365 360 357 356 353 354 359 356 356 359 359 355 352 346 345 342 344 348 348 349 350 350 352 352 350 351 352 360 358 357 360 362 365 365 366 366 368 370 367 360 361 360 360 359 359 361 364 368 369 370 370 369 367 365 363 364 364 364 364 363 363 362 362 362 361
367 366 368 368 369 369 370 368 366 364 366 365 363 362 363 364 366 368 366 366 365 364 363 360 357 354 358 359 357 355 352 352 356 355 346 342 340 342 345 350 350 350 353 354 354 354 353 353 357 356 362 364 365 365 363 366 367 371 365 360 360 361 361 359 358 363 365 366 368 368 366 367 368 366 365 366 365 364 364 363 363 363 362 362 361
367 368 368 368 368 369 367 365 365 363 364 364 364 365 365 367 366 365 367 366 367 364 362 363 361 361 360 361 359 357 354 352 350 349 348 350 341 341 343 343 344 349 354 351 355 356 355 355 355 352 355 360 362 364 367 368 369 361 360 359 361 361 360 359 359 363 364 363 364 367 366 364 365 367 366 366 366 365 364 364 363 363 362 362 360
363 366 367 366 367 368 365 364 366 367 367 366 365 362 363 364 365 368 368 366 365 365 364 365 364 363 361 362 358 354 354 350 352 353 350 348 346 342 343 346 344 345 352 354 359 356 357 358 354 353 361 361 363 364 367 368 364 361 358 359 359 360 360 360 359 360 356 357 360 363 364 364 364 364 365 366 365 364 364 364 363 363 363 362 361
364 362 364 362 366 367 367 366 367 368 367 367 365 366 366 367 367 368 367 369 368 366 363 362 360 362 360 359 358 357 358 356 354 356 355 352 350 346 346 350 350 348 351 357 355 355 355 355 356 357 357 360 363 366 369 371 371 358 365 362 359 359 360 360 360 358 355 353 353 355 355 357 358 360 361 362 363 364 364 365 364 363 363 362 361
362 360 361 364 367 368 367 367 368 369 370 369 369 370 370 367 367 365 365 366 365 365 362 360 360 360 359 360 359 358 358 359 358 355 356 356 354 348 348 350 346 346 352 352 351 355 355 356 359 358 362 366 367 372 371 369 369 365 362 365 359 359 358 358 358 356 354 352 352 353 354 355 357 358 359 360 361 362 363 364 364 364 363 363 362
361 362 363 363 365 367 369 369 371 371 372 371 370 371 371 368 368 366 363 367 367 366 364 362 364 364 364 361 360 359 359 359 359 358 354 353 350 348 351 352 349 346 353 353 356 350 352 357 358 365 363 365 366 370 372 366 366 364 361 365 364 357 356 355 357 356 354 352 352 353 353 355 358 360 359 359 360 361 362 362 363 364 364 365 363
363 366 368 367 366 368 369 369 371 371 372 371 368 370 372 372 370 369 368 367 368 365 363 361 358 360 364 365 362 361 361 361 359 358 358 356 353 353 353 348 347 347 346 352 353 352 348 356 356 359 364 370 368 371 370 366 363 363 363 372 368 360 356 354 354 354 354 353 353 352 351 353 355 358 360 359 358 360 362 363 362 362 362 362 361
368 368 367 368 367 367 369 368 371 370 370 371 370 369 371 369 368 369 368 366 367 366 365 363 361 362 362 366 365 361 363 362 361 360 361 361 359 359 357 354 348 343 347 345 347 348 351 351 355 359 362 365 369 368 369 367 362 363 367 370 372 370 359 353 351 351 350 349 349 349 349 351 353 354 356 358 357 356 358 360 361 361 360 360 359
365 366 366 369 368 367 367 365 370 371 370 371 369 370 370 369 366 368 367 366 368 366 365 365 364 361 362 364 364 364 364 367 365 364 367 369 364 361 359 355 355 348 345 344 349 346 350 352 349 358 365 368 371 368 369 368 364 365 365 369 369 372 358 348 349 348 348 348 348 348 349 351 351 352 355 356 355 354 355 357 360 361 360 359 359
364 362 366 367 368 369 368 369 368 369 368 368 369 370 371 369 368 369 367 369 367 368 367 365 365 365 364 364 364 362 366 363 362 362 366 368 364 362 360 360 360 353 351 347 349 353 350 353 353 352 363 367 363 363 362 365 363 366 367 369 367 367 350 348 350 349 348 347 346 346 347 348 350 351 350 349 348 348 350 353 356 359 360 359 359
367 367 367 365 367 368 370 368 369 369 369 369 371 371 371 369 368 364 368 370 367 366 368 366 364 365 365 363 366 364 366 365 364 362 364 365 364 363 362 364 361 360 357 353 348 355 356 352 354 357 357 363 361 361 361 364 363 363 366 369 370 360 352 362 353 350 348 345 344 344 343 344 345 344 342 343 344 346 349 351 355 356 359 359 358
364 365 365 365 365 364 363 363 363 366 367 367 368 369 370 369 366 363 366 369 367 366 365 366 362 364 365 364 366 366 366 364 364 363 363 365 364 362 364 363 363 362 360 356 352 352 359 355 356 358 358 361 365 365 363 361 359 359 371 370 373 362 370 364 356 352 349 345 344 343 341 340 339 339 341 343 344 346 349 350 351 352 354 355 354
364 363 364 366 367 365 363 365 363 366 370 369 369 371 371 370 370 369 369 369 367 365 367 366 365 365 366 366 366 366 368 364 363 361 361 361 364 363 364 363 359 362 360 357 353 353 359 364 360 357 359 363 358 365 362 358 358 362 362 368 373 369 366 365 364 354 351 347 343 341 340 339 338 337 339 342 344 345 348 350 349 349 350 349 349
365 362 365 364 365 365 364 365 367 366 369 372 367 368 369 368 368 364 365 369 368 366 366 366 366 365 366 366 365 364 367 365 363 359 359 358 359 358 360 359 358 359 363 358 355 355 354 359 359 363 361 364 358 365 364 361 361 366 363 364 365 365 366 366 364 360 352 347 342 339 338 338 337 337 339 340 342 343 343 343 342 341 341 342 340
364 363 363 362 366 368 365 366 368 367 369 368 368 368 369 369 368 364 362 365 365 364 363 365 364 365 364 364 362 363 361 362 363 361 360 359 359 359 358 359 359 358 361 364 359 355 354 355 361 358 358 362 361 360 364 363 366 366 367 365 360 359 362 364 364 356 349 346 342 339 338 337 337 337 337 337 339 339 338 337 334 333 334 334 332
359 364 365 364 366 368 365 366 367 367 368 367 367 369 369 369 369 368 367 367 365 364 363 363 362 364 363 363 362 361 362 362 362 361 361 361 360 361 360 362 364 361 361 364 364 359 357 354 359 358 359 359 359 360 361 363 362 364 364 364 363 362 362 360 360 358 351 345 343 340 339 337 337 336 336 336 335 333 332 331 330 329 330 329 329
359 361 365 366 366 366 361 362 364 367 366 367 368 366 367 368 368 366 366 368 367 366 366 366 365 366 365 363 361 362 364 362 360 359 357 359 359 359 358 361 362 362 363 363 363 363 360 357 356 361 364 362 362 364 365 360 360 361 364 366 365 364 365 360 356 354 348 343 341 339 338 339 339 338 337 337 336 335 333 331 330 329 328 327 327
360 358 360 361 361 364 364 363 364 366 368 368 369 368 365 366 367 366 366 367 366 367 367 366 366 366 364 365 364 364 363 361 358 358 362 361 360 358 359 361 361 362 363 364 365 363 361 359 359 357 361 357 359 362 364 364 358 356 358 360 362 364 366 359 355 353 353 353 355 355 347 346 344 340 340 340 337 334 333 332 331 329 326 324 322
359 357 358 360 362 362 364 364 362 365 367 366 368 370 367 367 367 367 364 365 366 366 366 365 364 364 364 363 364 364 364 363 360 359 360 361 360 360 362 363 362 362 360 360 362 361 359 357 357 358 358 360 360 356 361 364 363 360 356 355 355 358 362 363 360 358 356 355 353 348 350 349 345 347 343 337 334 333 331 330 330 328 327 325 321
358 357 357 357 360 361 361 362 363 365 366 365 367 368 367 365 364 365 365 364 362 364 364 365 364 362 363 362 360 361 363 365 364 364 364 361 362 360 360 363 363 362 359 358 359 359 357 356 354 353 355 357 358 360 360 363 361 362 363 356 352 353 356 361 362 359 361 363 359 355 350 347 347 345 336 334 335 335 334 334 335 334 334 331 327
357 358 358 357 357 358 359 360 362 362 359 360 361 363 364 365 364 362 363 363 363 363 364 362 363 364 363 362 361 360 364 365 365 363 362 362 360 360 363 365 365 363 362 360 360 359 358 356 356 358 356 356 357 358 355 355 354 352 356 357 355 356 357 357 361 364 362 358 357 355 355 357 358 359 359 362 365 357 354 342 346 346 340 332 329
360 361 360 359 357 356 357 359 360 358 358 358 361 352 354 361 363 360 361 363 364 362 363 363 361 361 361 361 359 363 365 365 363 359 352 351 353 357 360 363 364 364 362 361 359 359 358 356 353 353 350 349 348 351 351 353 356 359 357 358 354 353 356 356 359 364 364 360 355 356 357 358 356 357 359 359 360 363 363 364 363 353 344 335 333
359 361 360 359 358 356 355 356 356 355 355 355 350 338 337 341 357 361 362 363 365 364 362 363 362 360 360 361 361 362 364 363 362 358 355 351 351 350 350 352 358 362 360 358 359 359 357 355 355 355 352 353 354 355 354 352 353 354 354 356 354 353 353 351 349 358 368 364 361 359 359 362 363 359 360 359 360 361 362 363 347 341 335 333 331
358 356 355 356 358 357 355 355 354 353 353 354 337 334 335 334 343 358 359 360 359 361 361 359 360 360 359 359 359 359 361 363 363 364 364 359 352 350 349 348 349 350 352 359 359 357 358 357 356 356 356 355 356 358 355 353 354 354 356 355 355 355 354 352 352 351 362 368 359 356 355 362 364 361 361 361 362 363 361 348 338 336 333 331 330
356 357 358 356 355 355 354 355 353 353 353 347 335 332 331 331 331 344 355 358 358 358 359 361 360 360 361 361 359 359 357 360 361 361 364 365 361 352 349 349 349 346 339 338 344 358 359 357 357 356 356 357 357 358 358 358 360 355 354 352 355 355 355 353 353 353 359 366 360 356 353 358 361 359 359 362 364 365 363 349 341 336 333 331 330
354 356 357 358 358 360 359 358 358 356 355 352 337 331 328 328 329 335 352 354 356 357 359 359 359 360 362 363 360 359 360 362 364 362 362 363 363 363 365 364 363 362 354 340 337 338 348 355 356 355 358 361 358 360 362 363 358 354 353 351 354 353 353 353 358 358 361 361 356 354 352 355 359 358 359 362 364 365 367 353 340 335 333 331 329
355 356 355 356 358 358 357 355 355 355 355 346 338 333 327 324 325 333 349 352 354 356 358 359 361 359 360 360 361 359 360 362 363 362 360 361 362 361 362 361 361 362 363 361 360 358 356 353 354 355 357 358 359 360 361 362 360 359 357 356 355 355 355 358 358 360 360 363 361 358 350 354 360 358 359 361 361 363 366 349 340 336 333 329 328
354 356 353 354 354 355 356 355 353 352 354 330 330 330 327 326 327 344 351 355 355 355 356 358 359 361 361 360 361 361 361 362 357 346 352 358 357 357 358 359 360 360 359 362 347 349 357 357 358 357 357 357 345 359 361 355 356 359 360 358 357 357 355 353 352 353 353 359 362 357 353 355 361 356 358 362 363 363 366 365 347 340 335 331 328
349 350 352 352 353 354 354 353 350 352 353 337 325 324 324 323 334 355 356 355 356 356 356 358 358 358 358 359 360 358 357 360 340 325 331 346 356 356 357 357 357 357 357 359 346 334 331 330 330 331 330 330 329 327 326 326 342 349 352 350 348 350 350 349 351 351 352 356 357 360 356 354 359 359 358 361 363 361 362 363 366 345 334 331 327
347 348 351 352 352 353 354 355 354 354 352 340 327 320 320 322 332 355 356 355 355 355 355 356 356 357 356 349 352 359 360 357 325 323 328 350 357 357 357 355 355 355 357 359 361 358 335 327 325 325 326 327 327 326 326 325 325 333 346 344 349 351 350 350 348 351 353 357 358 362 358 354 358 361 358 360 361 363 362 365 366 359 335 328 322
345 348 350 350 350 350 350 352 351 349 346 342 323 319 318 320 340 358 357 357 356 356 356 356 358 358 358 354 353 353 353 338 318 321 325 344 353 354 355 354 351 353 355 359 359 358 359 359 360 363 357 343 346 349 351 335 330 338 345 348 351 351 350 350 350 352 350 354 361 367 357 355 356 357 357 353 352 357 363 364 363 364 366 366 365
Wind_Speed
6 6 5 6 5 5 5 5 5 5 4 4 4 3 3 3 3 3 3 3 3 3 2 1 1 0 1 0 1 1 1 1 1 1 1 1 1 1 3 3 4 4 4 5 6 6 5 4 4 4 4 4 4 5 6 6 6 6 6 7 7 8 8 9 9 9 9 9 9 9 9 9 10 10 9 9 9 9 9 9 9 9 9 9 9
6 5 5 5 5 5 5 5 5 4 4 4 3 3 3 3 3 3 3 2 2 2 1 2 1 1 0 1 0 0 1 1 1 1 1 1 1 1 4 5 5 5 5 5 5 6 6 6 5 5 5 5 5 5 5 6 6 6 6 6 7 8 8 9 9 9 9 9 9 9 9 10 10 10 10 10 10 10 10 10 10 10 10 10 10
5 5 5 5 5 5 5 4 4 4 3 3 2 3 3 3 3 2 2 2 2 2 1 1 1 1 1 1 0 1 1 1 1 1 0 0 1 2 2 5 6 6 5 6 6 6 6 6 6 6 6 6 6 6 6 6 6 7 7 6 7 8 8 8 9 10 10 10 9 9 10 10 10 10 10 10 10 10 10 10 10 9 9 10 10
5 4 5 5 5 5 4 4 4 3 3 2 2 2 2 2 1 1 1 1 1 1 0 1 2 2 0 1 1 1 1 1 1 1 1 1 1 2 2 3 6 7 6 6 6 6 6 6 6 6 6 7 7 7 7 7 7 7 8 8 8 8 9 9 9 10 10 10 9 9 10 10 10 10 10 10 10 10 10 10 9 10 10 10 10
4 4 4 4 4 4 4 4 3 3 2 3 3 2 2 1 2 1 1 2 2 3 1 2 2 1 2 1 1 1 1 2 2 2 1 1 1 2 2 2 3 5 8 8 7 6 6 6 6 6 6 6 7 7 7 7 7 7 8 8 8 9 10 10 10 9 10 9 10 10 10 10 10 11 11 11 10 10 10 9 10 10 10 11 11
2 3 2 3 3 3 4 4 3 3 2 2 3 3 3 4 4 4 4 4 4 3 3 3 3 1 1 1 1 1 2 2 2 2 2 2 1 2 2 2 3 3 3 7 8 8 8 7 7 7 7 7 7 7 7 7 7 7 8 9 9 9 9 10 9 9 9 10 10 10 10 11 11 11 11 10 10 10 10 10 10 10 10 11 12
2 2 2 2 2 3 3 3 3 2 2 3 3 3 3 4 4 4 4 4 4 3 3 3 4 3 1 1 2 1 2 2 2 3 3 3 3 3 2 3 2 3 3 3 6 9 9 8 8 8 8 8 8 8 8 8 8 8 8 9 9 10 10 11 10 9 9 9 10 10 11 11 11 11 11 11 10 9 10 10 11 11 10 12 13
2 1 1 1 2 2 2 2 2 2 2 2 2 3 3 4 4 3 4 4 4 4 3 3 3 4 2 0 1 1 2 2 3 3 2 2 3 3 3 3 3 2 3 3 2 3 8 8 8 8 8 9 9 9 9 9 9 9 9 9 9 10 10 11 10 10 10 10 11 11 11 11 11 11 11 11 11 9 10 10 10 11 12 13 13
2 1 1 2 2 2 2 2 2 2 1 1 2 3 3 4 3 3 3 3 4 4 4 3 4 3 2 1 1 1 2 2 2 2 2 3 4 3 3 3 3 4 4 3 3 2 7 9 8 9 8 8 9 9 9 9 10 10 10 10 10 10 10 10 11 11 11 11 11 11 11 12 11 11 11 11 12 10 9 10 11 12 13 13 13
2 2 1 2 3 2 2 2 1 1 1 2 2 3 3 3 3 3 3 2 3 4 4 4 4 3 3 3 0 1 1 2 2 3 3 3 3 3 3 2 3 3 3 3 3 3 2 6 9 9 9 9 8 8 8 9 9 10 10 10 10 11 11 10 10 10 11 11 11 11 11 11 11 10 10 10 11 10 10 10 10 12 13 12 12
3 2 2 2 3 3 2 2 1 1 1 2 3 3 3 3 3 3 3 2 2 3 4 4 4 3 3 2 1 2 2 2 3 3 3 3 2 3 2 3 3 3 3 3 3 3 3 2 2 2 4 10 8 8 8 8 9 9 9 9 10 11 11 10 10 10 11 10 10 10 10 10 10 10 9 11 11 9 9 11 12 12 12 10 11
3 2 2 2 2 3 3 2 1 1 2 2 2 2 3 3 3 3 4 2 2 3 3 3 4 3 3 1 1 2 3 3 3 3 3 3 3 2 2 2 2 3 3 3 3 3 2 2 3 3 3 5 8 7 8 8 8 8 8 9 9 10 10 11 11 10 10 10 10 10 10 10 9 9 9 8 8 8 8 9 11 10 10 9 8
2 3 2 2 1 2 2 2 1 1 1 1 2 2 2 2 3 2 4 4 4 3 4 3 4 3 2 2 2 1 2 3 4 3 3 3 2 3 2 3 3 3 2 2 3 3 2 3 3 3 2 2 3 8 8 8 8 7 7 7 8 9 10 10 11 11 10 10 10 10 10 10 9 8 8 7 7 7 7 8 8 10 9 9 8
2 2 2 2 2 2 2 2 1 1 1 1 1 2 3 3 4 3 2 4 3 5 5 4 3 4 4 3 4 3 2 1 2 3 2 1 2 3 3 4 3 2 1 2 3 3 3 2 2 2 2 3 3 3 2 4 5 5 5 6 8 9 9 10 10 11 10 11 10 9 9 9 8 8 8 7 6 7 7 7 7 9 9 9 9
2 2 2 2 2 2 1 2 1 1 1 1 1 2 2 3 4 4 3 2 2 3 4 5 4 3 1 2 5 2 3 4 4 5 5 3 1 1 2 3 3 2 2 3 2 3 3 2 2 2 2 3 3 3 3 3 3 4 6 6 6 7 8 9 9 10 10 10 8 8 8 7 7 7 7 6 6 6 6 6 6 7 8 8 8
3 2 2 2 2 2 2 1 1 1 1 0 0 1 2 2 3 3 4 3 3 3 3 3 4 5 3 4 3 3 4 6 6 4 4 5 4 4 3 2 1 1 1 2 1 2 2 3 3 3 3 3 3 3 3 3 3 6 6 6 5 5 6 8 9 9 10 10 8 7 7 6 6 6 6 6 7 6 6 6 6 7 7 8 8
3 3 2 2 2 2 2 2 1 1 1 0 0 1 2 2 3 2 3 3 3 3 3 4 4 4 4 2 1 3 5 5 5 3 6 5 7 6 5 3 3 1 1 2 2 2 3 3 3 3 3 3 3 2 3 3 3 3 4 4 3 5 6 6 8 9 10 10 8 6 6 5 5 5 6 6 6 6 5 5 6 6 6 7 7
3 2 2 2 3 3 3 2 2 1 1 1 1 1 1 1 2 2 2 2 2 3 3 3 3 3 2 2 2 3 3 5 5 4 3 4 5 7 7 7 4 2 1 1 1 2 2 3 2 3 2 2 2 2 2 3 2 2 2 5 7 8 8 7 7 8 9 9 7 6 6 6 5 5 5 6 6 5 5 5 5 6 7 7 7
4 3 2 2 2 3 3 2 1 1 1 0 0 0 1 1 1 1 2 2 1 2 3 3 2 2 2 2 1 1 2 3 5 4 4 4 5 6 7 8 7 6 4 3 2 2 2 2 3 3 2 2 2 2 2 2 3 3 4 5 7 7 8 9 8 7 8 8 7 5 5 6 6 6 5 6 6 6 5 6 6 6 7 7 7
4 4 3 3 2 3 3 2 2 1 1 1 0 0 0 1 0 1 1 1 1 1 3 3 2 3 3 3 2 2 1 1 3 4 2 5 5 5 6 7 5 7 6 5 5 4 3 3 3 2 2 2 2 2 3 2 2 3 3 3 6 7 8 8 8 8 7 7 7 6 5 6 7 6 6 6 7 6 6 6 6 6 7 6 6
5 5 4 4 3 3 3 2 2 2 1 1 1 1 1 1 1 1 1 2 1 1 1 2 3 3 2 3 3 3 2 2 1 1 3 4 4 6 7 6 4 6 6 5 5 4 4 4 4 4 2 2 2 2 2 2 2 2 4 4 6 8 7 7 7 7 7 6 7 7 7 7 8 7 6 7 7 7 7 6 7 7 7 7 6
5 5 5 4 4 3 3 3 2 2 2 1 1 2 2 1 0 0 1 1 1 1 0 1 1 2 2 2 3 2 1 1 2 3 2 1 3 5 5 6 5 5 5 6 6 5 4 4 3 3 3 2 2 2 2 2 2 3 4 6 7 7 7 7 7 7 8 8 7 7 7 8 7 8 7 7 8 8 8 8 8 8 8 7 7
4 4 5 5 4 4 4 4 3 2 3 3 3 2 2 1 0 1 2 1 1 1 1 1 0 1 1 2 2 2 2 2 3 3 3 3 3 4 4 5 5 5 5 6 4 4 4 4 5 5 4 3 3 3 2 2 2 4 6 7 7 7 7 7 8 8 8 9 8 8 8 8 8 8 8 8 8 9 9 9 9 9 9 9 8
4 3 4 5 4 5 5 4 4 4 4 3 3 2 1 1 1 1 2 2 1 1 1 0 1 1 1 1 1 1 1 1 2 1 1 2 2 3 3 4 2 3 4 5 3 4 4 5 5 5 4 3 3 2 2 2 2 2 6 4 6 6 7 7 8 8 8 9 9 9 9 9 8 8 9 9 10 10 10 10 10 10 10 9 9
4 5 5 6 5 5 5 4 4 4 3 3 3 2 1 1 0 2 1 2 1 1 1 1 1 1 1 1 1 1 1 1 1 2 2 0 1 2 4 3 4 3 4 5 4 3 3 5 5 5 4 3 3 2 2 2 2 4 6 4 3 6 6 7 8 8 9 9 10 10 10 10 10 9 9 8 9 10 10 11 10 10 10 10 9
5 6 5 5 5 5 5 5 4 4 4 3 3 2 2 1 1 2 2 0 1 1 2 1 1 1 1 1 1 1 1 1 0 1 0 1 1 3 3 3 3 4 2 2 3 3 2 4 3 3 4 4 4 3 3 4 2 4 6 6 4 4 6 7 7 8 9 10 10 10 10 10 9 9 9 8 8 9 9 10 10 10 11 10 10
5 5 5 5 6 5 5 5 4 4 4 3 2 2 2 2 1 2 1 1 1 1 1 2 2 1 1 1 2 1 2 1 1 1 1 2 3 3 3 5 5 4 4 2 2 2 4 2 1 3 4 4 4 3 4 4 3 2 6 4 5 4 4 6 7 8 9 9 10 10 10 10 10 9 8 9 8 8 9 10 9 10 10 11 10
4 5 5 6 6 6 5 6 5 4 4 4 4 3 2 2 2 2 2 1 2 2 2 2 2 2 2 1 2 2 1 2 2 1 1 2 2 1 2 3 4 5 4 3 4 2 2 4 1 1 3 5 4 4 5 5 3 4 6 5 4 5 3 6 8 8 9 9 9 10 10 10 10 10 9 9 9 8 8 9 10 10 10 10 11
4 5 5 5 5 6 5 5 4 4 4 4 4 3 3 3 2 2 3 1 1 2 2 2 3 2 3 2 2 2 2 2 2 1 1 1 1 1 2 3 2 4 4 5 3 4 2 4 4 2 4 5 5 5 4 5 4 4 5 5 6 5 5 8 9 9 9 9 9 9 9 10 10 10 10 10 9 9 8 9 9 10 11 11 11
5 4 5 5 5 5 5 5 4 4 4 4 4 4 3 3 2 3 2 1 2 2 2 3 3 3 3 3 2 3 1 2 1 1 1 1 1 2 2 2 2 4 3 4 5 4 4 4 4 3 4 6 5 5 4 5 1 4 5 6 6 6 7 11 10 9 9 9 9 9 9 9 9 9 10 10 9 9 9 8 9 10 11 11 11
5 5 5 5 5 5 5 5 4 5 5 5 4 4 3 3 2 3 2 2 2 3 3 3 3 3 4 4 3 3 2 3 3 3 1 2 2 2 2 2 2 3 4 4 6 2 2 5 5 5 5 6 6 6 6 5 2 3 5 6 6 7 10 9 9 8 9 9 9 10 10 10 9 9 10 9 9 9 9 9 9 10 11 11 11
6 6 5 6 6 6 6 6 5 5 5 5 5 4 3 3 3 4 2 3 4 4 4 3 3 3 4 4 4 4 3 3 4 4 3 2 2 2 2 2 2 3 3 5 6 7 4 6 6 6 6 6 6 6 7 6 4 4 5 6 6 7 6 6 6 7 9 9 9 10 11 11 10 10 10 9 9 9 8 9 9 10 10 11 11
5 6 6 6 6 6 6 5 5 4 4 4 4 4 4 4 4 4 4 4 4 4 4 5 5 4 4 5 5 4 3 4 4 4 4 3 2 3 2 3 3 2 3 4 6 8 6 4 5 6 7 6 7 5 6 7 7 7 7 6 7 6 6 6 7 8 7 7 9 10 11 11 11 11 11 10 9 9 9 9 10 10 10 10 10
6 7 7 6 6 6 6 6 5 5 4 5 5 4 5 5 6 5 5 5 6 6 5 6 5 4 4 5 6 5 4 4 5 5 5 5 4 4 3 3 4 4 2 4 5 6 8 6 6 5 6 4 7 5 6 8 8 8 9 8 7 6 6 6 6 7 5 8 9 10 11 11 12 12 12 12 10 10 9 9 9 10 10 10 10
6 6 6 7 6 6 6 5 5 5 5 5 5 5 5 6 6 6 5 5 6 6 6 6 5 4 5 5 6 5 4 5 4 5 5 5 5 5 6 5 5 6 4 4 5 7 8 8 6 7 6 5 7 8 8 7 7 7 8 8 8 8 7 7 7 8 5 7 9 10 11 11 11 12 12 12 11 11 10 9 9 10 10 10 10
6 6 6 6 5 5 6 6 6 6 5 5 5 5 6 7 7 7 7 6 6 7 7 6 6 5 5 5 6 6 5 5 5 5 5 4 4 4 5 4 4 5 5 4 4 5 6 8 7 7 6 6 7 7 7 7 8 7 7 8 8 8 9 9 8 8 7 8 10 11 11 11 11 11 11 11 11 11 10 10 9 9 10 9 9
7 6 5 5 5 6 6 7 7 6 6 6 6 6 6 6 7 7 7 7 7 7 7 7 6 6 6 6 6 6 5 5 6 5 5 5 5 5 5 4 4 4 3 4 4 4 5 7 7 6 5 6 6 6 5 7 7 7 7 8 8 8 8 8 8 8 10 11 12 12 11 11 11 10 9 10 11 10 10 10 10 10 10 10 9
7 7 7 6 6 6 7 7 7 7 6 6 6 7 7 7 7 7 8 8 8 8 7 7 7 7 7 7 7 6 6 6 6 6 5 6 5 6 6 5 5 4 4 5 4 4 5 6 6 7 5 7 6 5 6 5 6 7 8 7 7 6 6 8 9 8 9 9 8 6 6 8 8 6 10 10 11 11 11 11 11 11 11 11 11
7 7 7 7 6 6 6 7 7 7 7 7 6 7 7 7 7 8 8 8 8 7 8 8 8 8 8 7 7 7 7 7 7 7 6 6 5 6 6 5 5 5 5 5 4 5 5 6 6 6 7 5 5 8 5 5 6 6 6 7 8 6 6 6 8 8 9 10 11 9 9 9 11 10 9 11 11 12 12 11 11 12 12 12 12
8 8 8 8 7 7 7 7 7 7 7 7 7 7 7 7 7 8 8 9 9 9 9 8 9 8 8 8 8 8 8 7 7 7 6 6 6 7 6 5 5 5 5 5 5 5 6 6 6 7 6 6 6 6 6 5 6 5 4 5 8 8 8 6 7 9 9 8 9 9 5 8 9 9 11 12 13 12 13 11 12 12 12 12 11
8 8 8 8 8 8 8 7 7 7 7 7 7 7 7 8 8 9 9 9 9 9 9 9 8 8 8 8 8 9 8 8 8 8 8 6 6 7 6 5 5 5 5 5 5 5 6 6 7 6 6 6 6 6 6 5 6 8 7 6 7 8 8 8 7 7 7 8 9 9 8 8 9 9 9 9 8 8 9 11 10 12 12 12 11
7 6 7 7 8 9 8 8 7 7 7 6 7 9 8 7 8 8 8 8 8 8 8 8 9 9 10 9 8 9 8 9 10 11 12 12 11 10 8 6 6 6 6 7 7 6 6 7 7 7 8 8 9 8 8 9 8 7 7 6 8 9 8 9 7 5 4 6 8 9 9 7 8 9 9 9 9 8 8 7 7 8 9 11 12
5 5 6 8 8 8 9 9 8 8 7 7 8 11 12 13 9 8 8 8 8 8 9 9 9 10 9 9 8 9 10 11 11 13 12 12 12 12 13 12 10 8 8 8 8 7 7 8 8 8 8 9 10 9 9 10 9 8 8 7 7 8 8 9 10 7 3 3 6 8 9 8 7 8 8 8 9 8 8 7 6 8 10 11 12
3 4 6 7 7 8 7 9 9 9 8 6 9 10 11 12 11 9 9 8 8 8 8 9 8 8 9 8 8 6 7 8 7 7 9 11 12 11 12 12 12 12 12 10 9 9 9 9 9 9 9 9 10 9 9 9 8 8 8 8 8 8 9 8 8 9 5 4 8 9 10 7 6 8 8 8 7 7 8 8 10 11 11 11 11
3 4 5 6 7 6 7 7 8 9 9 5 7 9 10 11 11 10 9 9 9 9 8 8 9 8 7 7 7 6 6 6 6 7 6 6 8 12 12 12 12 13 13 15 15 12 10 10 10 11 10 10 10 10 9 9 8 9 9 8 8 8 8 9 9 9 8 5 8 10 11 9 7 8 8 7 7 7 7 6 7 9 10 11 11
5 5 6 6 5 5 5 6 7 9 10 6 4 7 9 11 11 9 9 10 10 10 9 9 8 8 7 6 6 7 6 6 5 5 5 6 6 6 6 6 7 9 14 16 17 17 14 11 11 11 11 9 11 11 11 9 9 9 9 10 9 9 9 9 9 10 10 7 9 10 11 9 7 8 9 9 7 7 6 6 7 10 11 11 11
6 6 5 5 4 5 5 4 5 8 10 3 3 4 5 6 6 6 8 9 9 9 9 9 8 8 7 7 7 8 7 6 4 2 5 6 6 6 6 7 7 7 7 8 8 7 8 10 11 12 12 12 12 13 11 10 11 10 10 10 10 10 10 10 10 10 10 8 8 6 9 10 8 9 10 9 8 8 6 6 9 10 11 10 9
1 3 5 5 6 5 3 3 4 5 3 7 4 4 3 4 1 4 6 7 8 8 7 7 6 5 6 6 6 7 6 6 4 3 2 4 6 6 7 7 7 7 8 8 6 7 9 9 10 11 11 11 11 11 11 11 10 9 8 8 8 7 8 8 9 8 9 7 6 7 9 10 7 9 10 9 8 8 6 7 5 8 9 6 6
4 3 1 4 6 6 5 4 4 4 3 11 13 8 3 3 4 3 3 4 4 5 5 4 4 4 4 4 4 5 4 2 7 6 3 4 4 5 6 7 7 8 9 8 8 13 14 14 15 16 16 17 17 17 16 17 13 9 8 9 10 9 9 10 10 9 9 8 7 7 8 12 9 8 10 9 9 9 9 7 5 3 5 5 6
4 3 2 3 4 2 2 1 3 3 0 9 9 4 3 3 4 3 2 2 2 2 2 2 2 2 1 2 4 3 3 4 7 6 5 3 4 5 6 7 8 8 9 7 6 5 10 12 13 15 16 16 17 17 17 16 16 8 7 10 11 8 10 9 10 10 9 8 9 7 7 10 10 8 11 11 11 8 7 7 5 3 7 7 10
1 1 2 2 2 3 3 5 10 8 7 7 12 10 3 2 2 3 4 4 5 5 5 4 3 2 1 2 6 6 5 5 5 5 5 4 4 6 7 9 10 11 10 9 8 8 8 9 9 7 8 11 11 9 10 15 15 11 10 11 10 10 10 11 11 10 11 8 6 5 5 9 11 10 10 10 11 10 8 8 8 8 7 6 5
Wind_Direction
90 89 88 87 89 88 91 89 85 84 93 88 72 64 58 42 29 10 16 355 0 16 3 357 313 152 283 58 196 192 200 220 235 219 250 271 240 167 218 263 260 268 281 299 308 318 311 298 296 287 298 301 305 313 321 321 324 327 324 323 317 319 320 323 325 323 325 327 324 325 326 327 328 327 327 324 323 319 318 316 316 314 312 308 306
89 85 87 85 83 87 89 87 85 78 77 70 58 43 28 14 7 357 358 355 359 25 347 23 44 46 237 309 244 38 154 219 218 234 237 237 250 240 205 251 269 266 268 280 294 301 309 313 311 308 307 304 310 313 319 320 321 319 319 316 314 313 313 316 316 317 318 319 320 318 319 318 318 320 321 322 319 318 316 315 314 312 312 311 310
86 84 84 84 83 82 81 83 83 73 57 67 52 30 12 0 356 344 352 352 7 18 336 19 38 21 130 236 206 243 243 216 254 204 237 198 270 260 223 223 251 270 276 266 276 284 290 296 298 304 307 314 314 315 313 314 316 312 317 313 308 305 309 306 308 309 312 313 313 312 309 310 313 316 319 320 317 316 316 314 311 308 304 302 302
78 77 76 77 76 77 78 71 68 59 49 43 37 24 359 351 341 310 308 324 9 34 351 8 28 32 213 224 239 260 237 253 289 23 323 294 253 248 251 234 220 243 265 286 280 272 274 277 282 287 293 298 302 304 305 306 309 310 309 308 307 308 308 309 306 306 307 308 309 305 305 308 312 313 314 313 313 311 310 309 306 301 298 295 296
79 73 74 72 73 71 75 62 61 54 56 33 24 11 23 18 41 17 22 17 22 31 352 7 359 9 335 45 314 270 270 254 280 285 304 291 232 250 253 241 250 216 231 246 257 271 274 274 281 283 285 286 287 288 294 297 297 298 299 299 303 302 304 303 302 301 302 304 303 304 305 306 307 308 309 310 308 307 305 303 300 296 294 293 291
88 80 69 81 75 67 62 66 57 42 41 25 32 32 30 28 33 27 30 23 22 20 4 12 15 11 343 9 314 326 292 290 292 305 285 280 293 255 242 235 232 245 228 214 231 243 250 259 267 272 274 276 278 281 282 284 287 291 293 295 296 296 296 298 299 297 298 298 300 298 298 300 301 302 301 301 302 299 297 297 295 295 292 290 290
91 82 76 65 80 74 63 61 48 37 43 41 22 29 32 31 32 28 25 28 14 20 5 13 17 26 17 337 328 325 290 301 298 290 270 275 262 257 245 245 240 242 234 244 205 221 237 247 252 259 262 265 267 269 271 274 279 281 284 287 288 289 290 291 293 293 289 287 286 289 291 292 293 293 295 294 294 291 289 289 289 287 286 286 286
118 129 103 101 84 87 75 61 53 59 44 35 19 30 32 36 35 24 21 23 12 18 14 14 20 26 52 250 267 269 272 286 281 277 292 275 268 261 245 241 237 240 246 255 254 202 206 230 242 249 254 259 262 262 264 266 269 271 273 275 278 281 282 283 283 284 284 283 283 282 284 286 286 287 288 289 289 288 288 286 284 284 283 285 283
132 144 135 116 108 105 106 87 70 58 45 25 32 29 18 40 32 16 16 19 7 7 24 12 13 13 32 17 16 245 284 284 278 284 274 264 260 259 250 240 233 227 233 238 244 250 192 212 231 236 245 253 256 258 259 262 263 267 268 270 272 273 274 275 276 276 277 278 278 279 281 283 283 283 284 288 294 294 289 285 284 287 287 287 286
153 151 135 106 105 103 98 91 95 75 46 30 25 27 29 23 34 18 10 28 13 11 16 11 359 2 12 17 13 246 247 242 251 251 253 255 249 257 260 271 247 248 255 268 273 243 256 192 213 232 236 240 242 249 254 258 261 265 269 271 272 274 275 274 271 270 273 274 273 275 276 277 279 279 282 284 290 293 289 286 283 288 291 291 291
158 159 152 132 123 116 121 114 126 100 46 28 31 26 25 27 19 30 2 28 25 12 8 354 4 4 23 22 326 236 253 249 240 244 254 270 281 269 255 239 249 231 237 244 242 242 236 263 244 241 216 203 232 239 248 253 260 265 269 274 275 277 278 276 274 274 273 272 271 273 278 280 281 281 282 292 296 292 289 289 296 299 300 300 299
164 158 163 135 125 127 122 135 116 92 51 27 47 48 26 18 21 24 23 29 41 2 11 356 14 27 7 332 328 304 264 263 255 253 253 256 253 262 275 250 241 251 237 240 252 265 242 241 246 252 271 200 208 240 246 254 260 266 274 279 285 288 288 285 283 280 279 280 280 285 288 291 288 287 286 288 290 291 289 291 301 304 306 305 300
160 167 160 135 129 128 128 123 117 95 83 58 66 54 36 8 12 21 13 23 35 20 27 346 354 26 1 12 42 334 294 258 276 278 265 266 256 253 257 268 262 254 249 252 260 268 254 228 239 252 256 285 233 211 230 248 256 260 264 278 287 290 292 294 294 293 290 290 292 298 300 300 298 294 295 296 294 297 298 295 298 307 312 310 305
156 167 163 155 155 161 157 147 155 141 127 115 90 67 42 26 13 25 20 20 42 19 22 336 21 18 9 25 52 78 54 350 351 4 336 277 267 251 252 273 281 288 269 260 260 261 264 249 257 278 268 272 285 303 271 234 226 211 254 276 287 294 295 297 298 299 298 297 299 303 305 306 306 305 305 305 305 304 303 302 302 315 317 316 314
162 168 167 175 174 173 180 165 176 170 183 157 98 70 54 39 34 29 354 54 47 39 28 4 15 8 355 323 34 14 108 47 27 36 29 40 20 347 315 289 291 285 278 275 282 294 309 304 284 275 283 277 292 290 281 279 278 282 275 275 281 290 300 303 304 304 304 301 301 303 305 305 306 307 307 308 307 308 310 310 313 320 318 315 311
171 178 178 174 180 190 184 189 180 225 274 295 38 77 61 53 34 33 4 355 33 44 32 29 7 1 38 18 24 1 42 23 1 32 25 53 33 34 27 343 321 291 260 277 320 323 297 282 278 272 269 273 280 277 274 292 290 268 259 269 278 285 294 299 300 302 302 303 300 300 300 299 299 299 298 301 306 311 315 317 316 321 315 319 314
183 190 194 177 176 181 188 192 185 203 257 244 80 49 51 47 40 31 25 5 13 22 45 29 48 23 10 355 68 68 29 13 350 51 18 37 32 28 30 357 23 27 299 324 322 283 292 290 275 265 259 260 258 262 277 288 291 301 290 254 267 310 307 299 302 302 299 298 297 295 290 284 283 283 288 295 304 307 309 310 312 309 310 313 310
195 200 195 186 181 178 183 192 184 181 217 36 53 88 87 26 56 359 29 46 2 350 39 59 59 52 44 56 22 14 355 349 354 9 332 31 19 32 33 34 41 64 34 279 280 287 262 289 274 273 262 271 272 276 295 292 285 295 309 335 336 323 317 310 300 303 300 294 290 288 281 275 268 269 275 287 297 299 303 305 300 303 306 305 307
203 199 191 190 184 179 181 205 192 188 172 179 143 9 82 72 29 32 12 34 25 9 18 39 87 47 52 42 55 346 345 353 22 345 8 6 20 23 38 41 53 58 50 31 4 319 298 294 299 317 317 296 303 311 299 307 306 286 280 290 307 308 314 314 312 303 300 298 294 292 270 268 268 264 266 270 277 286 284 290 289 296 299 296 304
206 192 196 185 190 188 193 203 208 197 229 222 271 9 118 148 68 31 52 81 48 6 8 22 18 48 34 24 59 50 50 73 26 16 348 343 6 25 36 36 49 48 34 27 18 3 338 306 310 316 335 334 334 334 316 317 321 319 334 326 303 304 310 312 310 306 299 297 299 297 279 271 272 267 258 256 261 266 269 273 282 286 289 288 294
207 199 195 191 190 199 204 217 212 204 223 221 219 197 223 193 151 175 149 133 156 49 6 22 350 40 27 39 36 51 92 89 84 15 15 356 11 14 6 14 38 38 26 18 23 14 354 348 338 321 347 336 326 322 322 331 338 318 322 327 315 310 308 308 305 292 295 295 296 292 292 281 270 266 258 246 246 255 257 259 266 272 277 282 283
205 206 199 203 203 206 221 222 222 205 228 226 224 217 220 229 267 206 111 139 132 177 65 56 352 21 42 37 39 47 55 53 22 23 70 7 350 350 9 2 6 18 13 13 7 17 14 8 352 7 6 348 343 333 348 335 332 325 348 328 311 307 306 306 304 297 301 303 296 279 280 292 277 265 263 252 249 249 249 250 253 256 263 267 267
212 202 213 207 210 216 225 220 226 206 222 216 217 220 198 204 179 167 182 205 178 183 179 187 168 338 63 47 38 42 39 29 26 15 3 12 352 357 7 9 354 359 9 356 343 17 19 18 13 20 12 4 6 348 343 337 307 5 309 291 300 307 310 310 308 306 305 305 303 296 292 292 293 286 279 264 254 249 246 245 245 246 252 255 257
222 225 219 215 210 218 221 222 221 223 219 216 213 215 224 215 206 197 196 210 219 206 273 197 238 152 325 61 23 16 66 355 33 30 351 10 341 346 13 352 336 358 357 344 341 19 21 28 28 33 32 28 23 2 337 307 56 20 310 349 310 316 317 315 313 312 307 304 303 302 302 298 291 287 282 272 264 255 248 245 242 244 249 254 256
215 222 221 220 215 220 219 217 219 226 232 221 209 223 243 260 264 239 219 229 240 285 257 253 296 317 337 40 321 329 31 6 351 358 40 30 254 332 7 358 333 343 3 356 355 347 39 38 45 45 45 42 45 26 356 344 15 42 318 332 331 336 334 326 320 312 306 301 300 301 301 299 296 292 288 279 268 260 257 253 247 245 249 256 257
212 213 220 215 220 224 224 226 228 230 229 225 223 224 224 253 245 250 240 234 272 272 275 270 263 254 301 321 289 339 350 347 1 267 292 243 319 353 347 337 326 347 357 353 348 305 84 40 58 49 38 31 32 18 353 340 345 51 342 314 356 0 337 328 320 314 308 304 302 302 299 298 291 291 297 290 278 271 254 251 251 249 252 256 259
213 211 210 214 222 226 229 235 225 227 225 228 228 226 231 237 255 273 291 226 263 281 291 281 264 249 225 256 310 289 6 321 277 314 334 329 341 352 341 347 345 339 351 346 339 358 355 357 355 44 25 15 10 359 352 344 353 27 319 318 344 339 322 329 321 314 310 307 303 301 301 300 299 294 292 299 292 283 276 265 249 244 246 252 256
210 207 207 215 220 223 224 231 231 226 225 225 232 231 223 240 255 251 261 221 255 255 273 282 266 262 270 307 289 315 342 352 340 338 322 338 324 323 307 333 343 341 347 348 352 18 12 348 9 350 351 355 345 343 326 309 339 345 278 329 333 328 11 336 321 312 307 303 302 302 302 302 301 303 301 299 300 292 279 270 260 247 244 245 248
210 204 209 205 217 221 226 235 222 225 223 224 228 226 226 235 233 239 265 294 266 271 277 274 280 280 260 252 277 298 316 343 327 345 4 322 309 301 307 325 337 326 336 332 345 337 347 356 339 10 336 332 328 333 328 327 14 336 331 324 328 317 358 325 308 302 300 301 302 305 304 305 305 305 304 302 301 295 286 276 262 253 248 245 245
214 206 200 202 207 212 225 228 233 227 231 230 225 223 225 243 240 248 260 273 258 248 250 267 271 269 271 263 265 267 300 278 279 327 355 303 300 294 294 291 283 309 325 313 317 304 313 325 318 334 333 323 321 316 322 315 51 298 325 316 320 330 333 303 290 286 292 296 300 302 305 306 307 305 303 301 297 295 286 270 265 252 247 246 249
201 200 206 206 202 205 216 227 218 222 224 229 222 222 224 248 244 254 219 222 244 254 244 242 258 267 275 278 269 274 292 305 299 287 333 275 285 294 294 280 272 285 297 300 297 295 303 312 317 324 319 314 319 321 315 314 320 321 312 316 310 327 303 286 274 279 287 296 300 303 307 308 306 303 300 295 291 290 285 272 257 257 251 251 251
211 199 208 209 205 207 211 218 221 219 218 222 221 213 224 246 258 261 236 223 249 259 267 260 269 272 278 277 278 282 293 294 294 289 272 292 286 267 261 267 273 281 287 288 285 292 284 295 307 304 307 317 307 300 313 313 319 200 315 301 307 289 288 315 297 282 287 293 300 304 306 308 306 304 301 296 291 284 279 272 267 260 256 256 256
207 200 199 203 205 211 218 216 225 218 222 227 218 213 217 224 231 241 247 235 248 258 257 268 270 269 277 283 286 287 292 295 295 293 285 274 267 260 254 258 272 269 267 279 286 292 293 287 287 297 310 314 308 302 305 314 321 329 316 307 305 305 306 309 311 298 282 293 301 303 305 307 308 306 304 301 294 285 279 271 267 262 260 259 258
207 206 202 202 206 212 219 219 222 227 226 225 234 228 228 226 232 228 229 231 239 251 260 264 263 267 272 279 282 283 277 284 295 291 283 286 282 281 267 270 285 286 256 272 289 293 300 301 296 308 303 299 302 304 309 314 319 319 315 314 307 305 302 305 306 304 276 293 302 306 304 303 304 305 305 304 299 292 286 279 272 268 267 266 262
202 212 205 208 198 206 220 220 219 230 227 234 230 228 232 233 236 242 242 236 240 247 247 248 253 257 261 266 273 274 270 269 272 279 286 287 292 295 294 298 298 297 285 257 278 289 299 305 309 306 318 320 311 314 314 311 308 302 304 310 316 315 308 302 301 308 297 287 297 297 297 297 297 299 302 301 298 295 291 283 275 272 271 269 264
206 202 211 209 199 201 218 220 224 231 228 231 229 225 227 232 237 237 238 237 242 247 249 253 253 246 252 257 265 272 275 273 272 276 272 267 270 270 278 277 273 285 289 266 250 274 289 296 302 305 311 312 306 307 312 310 310 311 304 305 301 302 308 308 303 300 308 293 286 282 284 289 288 291 294 295 295 294 292 288 281 276 275 274 272
214 206 200 208 207 207 221 223 227 228 232 231 231 235 231 231 235 242 242 237 239 241 246 249 252 254 252 254 261 264 260 264 270 267 272 269 271 274 276 275 273 277 272 262 260 253 268 281 294 293 293 285 284 290 303 312 315 309 305 299 305 305 302 307 309 308 293 257 250 255 263 272 279 280 287 295 295 293 290 285 280 276 272 271 269
212 218 213 213 213 212 219 226 228 231 232 232 232 238 240 237 234 241 242 242 241 239 241 242 243 245 250 252 255 256 258 258 269 275 276 278 277 274 280 284 286 285 273 267 253 256 263 275 282 294 289 299 301 295 299 297 304 308 305 302 298 291 293 307 315 316 319 321 324 305 275 261 266 269 287 294 295 293 286 281 277 273 269 270 269
220 226 222 220 213 224 222 228 232 229 231 235 234 236 243 245 244 245 250 248 246 243 243 243 244 242 243 245 244 245 248 250 258 264 267 268 271 278 273 275 280 276 281 284 278 275 277 282 286 284 291 289 292 301 299 290 287 274 286 302 302 305 296 302 306 310 314 315 308 268 255 281 289 283 280 276 277 276 276 274 274 268 268 268 267
228 233 237 232 225 228 232 233 233 232 231 235 232 236 242 248 248 247 248 253 254 252 250 246 246 247 244 245 248 244 242 241 245 252 256 264 266 274 272 265 266 266 279 286 281 283 282 285 282 292 290 291 283 278 284 273 282 275 241 276 297 303 302 291 288 302 307 305 305 317 271 243 267 264 253 245 247 255 263 264 255 255 259 263 264
236 237 239 244 245 243 241 239 241 239 239 235 235 230 232 235 242 248 247 246 248 252 255 256 251 247 249 252 251 252 242 234 235 247 260 263 270 273 270 263 261 266 273 279 275 275 273 277 282 273 274 276 276 278 286 283 285 293 297 285 282 283 286 290 283 277 286 299 303 306 309 317 306 307 315 314 304 278 270 244 258 252 255 262 266
237 237 242 242 246 248 247 239 238 242 240 239 224 220 229 242 239 245 245 246 248 249 251 255 257 253 251 251 252 242 234 230 236 240 239 241 239 253 270 274 274 275 278 280 279 275 277 279 281 285 287 287 293 295 292 290 288 278 281 285 291 298 298 291 284 274 281 292 304 303 301 304 302 301 302 304 308 301 308 303 322 323 309 296 288
257 251 240 241 244 246 247 248 243 241 243 240 216 213 221 231 244 248 246 244 241 240 241 245 254 259 258 251 253 237 224 230 239 238 242 239 236 237 246 253 260 269 281 283 281 284 282 284 285 282 282 284 283 289 286 291 292 291 292 289 288 295 297 304 306 303 244 292 289 290 294 301 291 287 290 289 296 301 303 305 317 300 290 285 285
224 245 248 241 242 245 247 250 250 250 253 238 215 219 223 228 230 244 251 251 246 240 239 240 244 251 255 256 252 250 238 238 250 244 232 230 233 237 238 243 247 244 244 252 267 274 274 278 278 278 281 276 278 280 285 290 293 295 291 289 283 283 289 288 292 296 306 306 304 299 292 288 278 279 284 278 282 290 303 297 284 280 278 279 279
227 222 236 248 244 243 246 250 256 258 262 241 218 227 230 233 232 236 255 256 255 251 248 242 243 245 248 254 261 263 271 234 234 250 258 258 227 222 231 237 240 238 236 234 235 244 263 265 267 271 267 272 276 274 275 282 287 284 284 281 282 281 281 283 283 293 300 308 298 292 293 296 290 279 282 284 289 295 296 271 254 260 270 274 277
215 221 223 225 235 242 253 257 261 263 262 265 222 230 237 235 233 222 248 254 255 257 255 252 252 252 251 255 263 266 269 263 258 259 267 269 281 274 252 243 249 233 222 223 229 232 237 251 260 265 266 264 266 271 273 270 271 271 276 278 285 284 281 277 288 287 285 282 277 293 291 289 293 295 291 296 297 292 281 274 261 267 269 270 273
218 224 230 233 232 238 239 244 263 277 268 241 214 285 304 286 278 239 251 253 255 255 252 251 253 257 261 262 261 265 268 265 271 292 284 278 276 272 270 270 263 265 261 250 237 225 216 228 241 249 257 260 262 266 269 266 261 261 263 274 279 280 280 282 276 264 270 255 247 252 278 292 301 292 289 298 303 297 295 284 245 253 260 264 269
128 198 231 239 241 240 227 239 232 223 251 62 14 0 358 351 225 234 238 242 251 255 258 259 260 262 261 261 262 265 269 275 85 90 279 281 270 269 272 273 276 272 267 260 237 236 249 260 258 260 264 272 281 279 281 281 281 278 279 272 265 261 269 271 275 285 283 287 230 238 273 286 293 290 292 296 297 292 296 294 280 241 256 261 258
102 81 63 224 226 233 228 218 246 272 273 47 22 1 329 284 244 259 255 253 251 256 262 276 274 272 270 274 277 279 281 288 67 59 31 293 273 274 277 281 283 285 280 281 207 212 227 234 244 256 267 272 271 268 266 266 263 276 288 282 268 266 269 275 280 281 283 291 285 253 270 289 296 292 292 297 298 293 289 285 287 189 186 209 223
122 141 104 78 63 48 49 269 238 270 121 39 14 337 289 305 305 285 285 272 266 261 268 262 268 259 302 321 286 268 260 60 54 57 12 326 286 283 287 289 292 288 287 289 296 264 220 227 235 241 247 252 255 259 263 264 261 243 231 246 261 268 266 270 277 283 288 285 272 256 259 270 295 298 302 304 301 285 293 298 279 222 181 211 215
41 154 134 100 84 69 55 41 52 64 67 40 14 349 343 317 313 281 277 269 261 260 264 258 247 251 208 121 54 45 51 73 74 59 33 354 299 290 288 288 284 284 289 303 302 302 308 307 294 274 255 238 239 240 245 243 244 224 226 241 261 262 269 273 280 290 289 275 294 174 241 288 298 300 305 307 302 303 303 302 292 292 288 275 239